(13) Egeria
ephemeris date magn radius delta ra dec elong phase
Today25 Aug 202612.42.656 AU2.904 AU14h14m-17°35'65.9°20.3°
Opposition1 Aug 202711.12.792 AU1.842 AU21h23m-42°11'154.5°9.0°
(13) Egeria - 2026-08-25
astro.vanbuitenen.nl


 
-1 year
-1 month
-1 day
Now
+1 day
+1 month
+1 year

The interactive orbit chart above shows the body's path through the solar system and its position at the given date. Green and blue lines are shown perpendicular to the ecliptic plane: Green if the path is above the ecliptic plane, blue if it is below. (Left-click and drag to rotate the view; Right-click and drag to move the view; Use scroll wheel to zoom in our out.)

The orbital elements of Egeria are:

            e (Eccentricity)                : 0.0846050
            a (Semimajor axis)              : 2.5763636
            i (Inclination)                 : 16.52511
            Ω (Longitude of ascending node) : 43.17726
            ω (Argument of perihelion)      : 79.11880
            M (Mean anomaly)                : 88.61668
            Epoch                           : 2026 Jun 09

            L (Longitude of perihelion)     : 121.83915
            B (Latitude of perihelion)      : 16.21972
            P (Orbital period in years)     : 4.14            
        

The light curve chart below shows the estimated development of the minor planet's magnitude.


The all-sky chart below shows the path of the minor planet over the same period as the light curve. The current position is marked yellow.





The following chart shows the path of the minor planet in the next few days. The field of view is optimized for (~10x50) binoculars and finderscopes.




Ephemerides:
Date       Time       RA (2000)    DEC (2000)    delta   radius  elong  phase   PA    magn
2026-08-25 00:00 UT   14 14 20.3   -17 35 24     2.904    2.656   65.9   20.3   111   12.4 
2026-08-25 13:28 UT   14 15 02.4   -17 40 23     2.912    2.657   65.5   20.3   111   12.4 
2026-08-26 00:00 UT   14 15 35.5   -17 44 16     2.917    2.657   65.2   20.2   111   12.4 
2026-08-27 00:00 UT   14 16 51.4   -17 53 08     2.930    2.658   64.6   20.1   111   12.4 
2026-08-28 00:00 UT   14 18 07.8   -18 01 59     2.942    2.659   64.0   20.0   111   12.4 
2026-08-29 00:00 UT   14 19 24.9   -18 10 50     2.955    2.659   63.3   19.8   111   12.4 
2026-08-30 00:00 UT   14 20 42.5   -18 19 41     2.967    2.660   62.7   19.7   111   12.4 
2026-08-31 00:00 UT   14 22 00.8   -18 28 32     2.979    2.661   62.1   19.6   111   12.4 
2026-09-01 00:00 UT   14 23 19.6   -18 37 22     2.992    2.662   61.5   19.5   111   12.4 
2026-09-02 00:00 UT   14 24 39.0   -18 46 12     3.004    2.663   60.9   19.3   111   12.4 
2026-09-03 00:00 UT   14 25 59.0   -18 55 01     3.016    2.663   60.2   19.2   111   12.4 
2026-09-04 00:00 UT   14 27 19.5   -19 03 50     3.028    2.664   59.6   19.1   111   12.4 
2026-09-05 00:00 UT   14 28 40.6   -19 12 38     3.040    2.665   59.0   18.9   111   12.4 
2026-09-06 00:00 UT   14 30 02.3   -19 21 26     3.052    2.666   58.4   18.8   111   12.4 
2026-09-07 00:00 UT   14 31 24.6   -19 30 13     3.064    2.667   57.8   18.6   111   12.4 
2026-09-08 00:00 UT   14 32 47.3   -19 38 59     3.076    2.667   57.2   18.5   111   12.4 
2026-09-09 00:00 UT   14 34 10.7   -19 47 45     3.087    2.668   56.6   18.4   111   12.4 
2026-09-10 00:00 UT   14 35 34.6   -19 56 30     3.099    2.669   56.0   18.2   111   12.5 
2026-09-11 00:00 UT   14 36 59.0   -20 05 14     3.111    2.670   55.3   18.1   111   12.5 
2026-09-12 00:00 UT   14 38 24.0   -20 13 57     3.122    2.671   54.7   17.9   111   12.5 
2026-09-13 00:00 UT   14 39 49.5   -20 22 39     3.133    2.671   54.1   17.8   111   12.5 
2026-09-14 00:00 UT   14 41 15.5   -20 31 19     3.145    2.672   53.5   17.6   111   12.5 
2026-09-15 00:00 UT   14 42 42.0   -20 39 59     3.156    2.673   52.9   17.5   111   12.5 
2026-09-16 00:00 UT   14 44 09.1   -20 48 38     3.167    2.674   52.3   17.3   111   12.5 
2026-09-17 00:00 UT   14 45 36.7   -20 57 15     3.178    2.675   51.7   17.2   111   12.5 
2026-09-18 00:00 UT   14 47 04.7   -21 05 51     3.189    2.675   51.1   17.0   111   12.5 


    Terminology:
            
    delta:  distance between minor planet and earth in AU
    radius: distance between minor planet and sun in AU
    magn:   magnitude (brightness) estimate    
    ra:     right ascension in hours (24h = 360deg)
    dec:    declination in degrees
    elong:  elongation in degrees (angle sun-earth-minor planet)    
    phase:  phase angle in degrees (angle sun-minor planet-earth)        
    AU:     Astronomical Unit (mean distance between earth and sun: 149597870.7 km
    

Orbital elements provided by the MPC (Minor Planet Center).
Calculations by a modified version of AAPlus, a C# implementation of the AA+ project by PJ Naughter from the algorithms presented in the book "Astronomical Algorithms" by Jean Meeus.
NGC2000 dso catalog and star labels from VizieR as provided by the Strasbourg astronomical Data Center.
Tycho2 catalog from the ESO archive.